sat.trackr.live / text

‹ back to catalog

BIOMASS

NORAD 63772 · 2025-090A

PAYLOAD ACTIVE UNKNOWN

§ Identity

Operator
Country
ESA
Launch date
2025-04-29
Launch site
FRGUI
Launch vehicle
Mass (kg)
RCS (m²)

Purposes: earth_obs

External: N2YO · Heavens-Above · Gunter

§ Orbital elements

Epoch: 2026-05-25T02:58:54.541632Z

Period
98.12 min
Inclination
98.0749°
Eccentricity
0.0001470
Mean motion
14.67535650 rev/d
Perigee alt
667.9 km
Apogee alt
670.0 km
Semi-major
7,047.1 km
B*
9.2205e-5
RAAN
332.7739°
Arg perigee
88.4579°
Mean anomaly
271.6794°
Rev number
5,730

§ Raw data

BIOMASS1 63772U 25090A   26145.12424238  .00000475  00000+0  92205-4 0  99922 63772  98.0749 332.7739 0001470  88.4579 271.6794 14.67535650 57304

JSON: /api/v1/satellites/63772 · /tle

For live sub-satellite position, see the globe view (requires WebGL).

§ Visibility from observer

Set your observer location to see the next 7 days of passes ≥ 10°. The values pass through the URL so the page stays shareable.

No JS? Fill the form by hand. The geolocation button needs JavaScript.